Location: Glens Falls
(43.3090°N, 73.6440°W)
Time: 10:08:07
(UTC-04:00)

Meteor 1-11 Rocket - Pass Details

Date: 24 February 2018
Orbit: 831 x 916 km, 81.2° (Epoch: 20 June)

Event Time Altitude Azimuth Distance (km) Brightness Sun altitude
Rises 19:29:40 0° 190° (S) 3,380 6.9 -21.2°
Reaches altitude 10° 19:32:03 10° 191° (S) 2,458 6.1 -21.6°
Maximum altitude 19:37:38 84° 280° (W) 868 3.7 -22.6°
Drops below altitude 10° 19:43:23 10° 9° (N) 2,529 6.2 -23.6°
Sets 19:45:52 0° 10° (N) 3,485 6.9 -24.1°
